KUIPER-00063

导读

KUIPER-00063是美国亚马逊“柯伊伯计划”卫星互联网项目的量产卫星,于2025年6月23日发射入轨。该卫星运行于近地轨道,搭载先进相控阵天线与激光星间链路,可灵活分配通信容量,为全球用户提供高速宽带互联网服务,是柯伊伯星座三千余颗组网卫星的组成部分,将和其他卫星共同构建覆盖全球的低轨卫星通信网络,与星链项目形成市场竞争。

基本信息
目录编号:
64523
目录名称:
KUIPER-00063
国际标识:
2025-134Z
轨道中心:
EARTH
卫星名称:
KUIPER-00063
卫星全名:
KUIPER-00063
卫星状态:
在轨 (已飞行355 天)
发射日期:
2025-06-23 UTC
国别 :
美国 (US)
星等 :
--
轨道信息
数据来源 国际轨道数据 AOE轨道数据
星历时间 2026-06-13T02:35:11+0800
7小时前
查看轨道信息
2026-06-10T21:00:00+0800
2天前
查看轨道信息
半长轴 7007.652km 7007.683km
偏心率 0.0000464 0.0000648
轨道倾角 51.900° 51.900°
近地点辐角 88.199° 106.528°
升交点赤经 177.658° 187.532°
平近点角 271.902° 230.743°
近地点 629.189km 629.091km
远地点 629.841km 630.001km
周期 97.301分钟 97.302分钟
每日圈数 14.799398 14.799299
详细信息
使用方式:
暂无
2D轨道图
3D轨道图
轨道高度分析图
轨道倾角分析图
轨道综合分析图
查看轨道综合分析图